Location: Heemstede
(52.3500°N, 4.6167°E)
Time: 08:34:56
(UTC+00:00)

Daily predictions for brighter satellites

Satellite Brightness Start Highest point End
(mag) Time Altitude Azimuth Time Altitude Azimuth Time Altitude Azimuth
NOAA 12 4.1 16:44:08 10° SSE 16:49:25 74° ENE 16:54:46 10° NNW
ADEOS Rocket 3.3 16:43:42 10° NNE 16:50:07 75° ESE 16:57:15 10° S
CZ-4B R/B 3.3 16:45:18 10° SSE 16:50:53 88° ENE 16:56:25 10° NNW
Cosmos 1689 Rocket 4.2 16:51:42 10° E 16:52:11 10° E 16:52:40 10° E
USA 281 3.3 16:48:23 10° SSE 16:54:58 88° SW 17:01:36 10° NNW
FALCON 9 DEB 3.1 16:52:33 10° W 16:56:00 80° N 16:59:25 10° E
Cosmos 2227 Rocket 2.3 16:51:49 10° NNW 16:57:27 62° NE 17:03:03 10° SE
CZ-4C R/B 3.6 16:51:55 10° NW 16:57:32 33° N 17:04:08 10° ENE
FALCON 9 DEB 4.0 16:54:51 10° SW 16:57:46 32° SSE 17:00:42 10° E
IRS-1C Rocket 4.5 16:53:03 10° SE 16:58:00 42° ENE 17:02:57 10° N
Cosmos 1892 3.7 16:55:01 10° N 16:58:24 27° ENE 17:01:44 10° SE
Cosmos 2263 Rocket 3.6 16:54:36 10° NNW 16:58:52 21° NNE 17:03:07 10° E
Cosmos 1818 4.4 16:53:37 10° WSW 16:58:53 49° NW 17:04:13 10° NE
Cosmos 1908 3.7 16:56:49 10° SSW 17:00:39 65° WNW 17:04:32 10° N
Cosmos 1110 Rocket 4.0 16:56:33 10° SSW 17:01:46 72° ESE 17:06:59 10° NNE
Cosmos 1939 Rocket 3.4 16:59:26 10° SE 17:03:01 35° ENE 17:06:36 10° N
H-2A R/B 2.0 17:00:42 10° NNE 17:04:54 85° WNW 17:09:00 10° SSW
USA 307 3.0 17:00:58 10° WNW 17:05:18 83° SSW 17:09:35 10° ESE
COSMO-SKYMED 1 3.6 17:02:52 10° NE 17:06:30 25° E 17:10:06 10° SSE
Landsat 5 3.8 17:04:16 10° N 17:08:08 65° WNW 17:12:04 10° SSW
Envisat 4.0 17:05:06 10° S 17:10:03 53° W 17:15:04 10° NNW
USA 308 3.0 17:05:57 10° WNW 17:10:16 80° SSW 17:14:33 10° ESE
Cosmos 1486 Rocket 4.1 17:05:36 10° NNW 17:10:55 61° ENE 17:16:11 10° SE
Cosmos 1300 2.7 17:08:04 10° S 17:11:50 58° E 17:15:36 10° NNE
CZ-4B R/B 1.6 17:09:18 10° NNE 17:12:25 43° E 17:15:26 10° S
Cosmos 1825 Rocket 4.1 17:08:33 10° NNW 17:12:59 65° W 17:17:21 10° S
Cosmos 1400 Rocket 3.3 17:09:42 10° SSE 17:13:31 39° E 17:17:19 10° NNE
Cosmos 1825 3.6 17:11:11 10° NNE 17:13:58 19° ENE 17:16:44 10° ESE
Cosmos 1697 Rocket 3.8 17:10:54 10° SSE 17:15:03 22° ESE 17:19:14 10° NE
ERS-2 2.2 17:12:37 10° NNE 17:16:14 55° ESE 17:19:49 10° S
Helios 1A Rocket 3.4 17:16:31 10° SE 17:20:21 39° ENE 17:24:11 10° N
Cosmos 1503 Rocket 4.3 17:16:02 10° NNW 17:21:04 46° ENE 17:26:07 10° SE
BREEZE-M TANK 4.3 17:11:35 10° WSW 17:21:21 44° S 17:24:56 10° ESE
YAOGAN 1 3.3 17:18:56 10° SE 17:22:46 32° ENE 17:26:37 10° N
Cosmos 1340 2.5 17:21:34 10° N 17:25:22 76° ENE 17:29:08 10° SSE
NOAA 11 4.2 17:22:17 10° SSE 17:27:44 88° WSW 17:33:13 10° NNW
CZ-2D R/B 3.5 17:24:40 10° SE 17:28:19 46° ENE 17:32:00 10° N
Cosmos 44 3.1 17:23:57 10° SW 17:28:31 81° SE 17:33:24 10° NE
Okean O Rocket 2.8 17:25:28 10° S 17:29:40 47° W 17:33:54 10° NNW
Cosmos 2228 3.3 17:25:57 10° SSW 17:30:12 72° WNW 17:34:31 10° N
Cosmos 1726 Rocket 3.5 17:26:40 10° S 17:31:02 89° E 17:35:28 10° N
CZ-4 R/B 1.7 17:27:33 10° SE 17:31:09 38° ENE 17:34:45 10° N
Cosmos 1346 Rocket 3.0 17:29:16 10° N 17:33:09 48° ENE 17:37:02 10° SSE
Cosmos 1354 Rocket 4.2 17:28:47 10° NNW 17:33:55 50° ENE 17:39:03 10° SE
SL-4 R/B 1.8 17:30:25 10° W 17:33:56 73° S 17:36:32 18° ESE
Cosmos 2058 3.1 17:29:58 10° N 17:33:57 45° ENE 17:37:53 10° SSE
Aureole 3 2.5 17:33:41 10° S 17:36:39 60° E 17:39:39 10° NNE
Cosmos 2151 4.2 17:33:29 10° NNE 17:36:43 21° ENE 17:37:31 20° E
Cosmos 2297 Rocket 2.7 17:31:21 10° NW 17:36:59 66° WSW 17:42:35 10° SSE
Cosmos 2369 Rocket 4.2 17:33:28 10° W 17:37:54 22° NNW 17:42:21 10° NNE
In-Cosmos 22 Rocket 4.1 17:33:15 10° NNW 17:38:39 87° ENE 17:44:07 10° SSE
PSLV R/B 4.4 17:34:47 10° NNE 17:38:44 39° E 17:42:37 10° SSE
Cosmos 1980 Rocket 3.4 17:35:04 10° SE 17:38:46 18° E 17:39:22 18° E
Timation 1 Rocket 4.5 17:34:08 10° NNW 17:40:04 56° NE 17:45:59 10° SE
CZ-2C R/B 3.4 17:39:24 10° SE 17:44:59 54° ENE 17:50:23 10° N
CSL-04 Debris 4.5 17:40:25 10° SE 17:45:33 44° ENE 17:50:44 10° N
Cosmos 1315 Rocket 3.5 17:43:46 10° SSE 17:47:19 32° E 17:50:56 10° NNE
Cosmos 1606 Rocket 4.4 17:43:17 10° SSW 17:47:34 53° WNW 17:51:56 10° N
Cosmos 1553 Rocket 3.9 17:45:09 10° S 17:51:25 68° E 17:57:38 10° NNE
Cosmos 220 Rocket 4.4 17:48:48 10° S 17:52:55 41° ESE 17:55:51 18° NE
BREEZE-M R/B 3.7 17:50:36 10° W 17:54:17 62° S 17:59:00 20° ESE
Ariane Rocket 4.2 17:53:41 22° ENE 17:54:18 22° NE 17:58:10 10° N
SKYMED 2 3.5 17:50:29 10° NNE 17:54:51 68° ESE 17:59:10 10° S
USA 305 3.6 17:50:47 10° WNW 17:54:58 51° SSW 17:58:11 16° SE
Meteor 2-15 4.4 17:49:04 10° S 17:55:04 59° E 18:01:05 10° NNE
Meteor 2-10 Rocket 3.6 17:52:05 10° S 17:57:11 53° E 18:02:08 10° NNE
Cosmos 1455 2.5 17:55:34 10° SSE 17:59:09 42° E 18:02:47 10° NNE
Cosmos 292 Rocket 4.4 17:55:10 10° SW 17:59:54 56° WNW 18:04:42 10° NNE
NOSS 3-4 (A) 3.8 17:53:48 10° NW 18:00:30 64° NE 18:05:39 21° ESE
NOSS 3-4 (C) 3.8 17:53:54 10° NW 18:00:36 64° NE 18:05:43 21° ESE
USA 306 3.7 17:57:19 10° WNW 18:01:27 47° SSW 18:04:25 17° SE
SeaSat 1 2.9 18:00:38 27° E 18:02:48 41° NE 18:07:26 10° NNW
Cosmos 1943 Rocket 4.5 18:01:32 10° NW 18:04:30 14° NNW 18:07:27 10° NNE
H-2A R/B 2.2 18:00:06 10° SE 18:05:25 57° ENE 18:10:46 10° N
Okean-O 2.6 18:02:19 10° SSE 18:06:46 87° WSW 18:11:15 10° NNW
MOS 1 Rocket 3.8 18:02:52 10° NNE 18:07:14 37° E 18:11:50 10° SSE
FALCON 9 DEB 2.9 18:04:13 10° WSW 18:07:26 75° SSE 18:07:57 57° E
FALCON 9 DEB 2.8 18:06:10 10° WSW 18:09:22 78° SSE 18:09:47 63° E
Cosmos 2278 4.3 18:06:58 10° SSE 18:11:58 33° ESE 18:12:45 31° E
NOSS 3-3 (A) 4.1 18:06:55 10° SSW 18:12:35 51° ESE 18:16:10 25° ENE
NOSS 3-3 (C) 4.1 18:07:02 10° SSW 18:12:42 50° ESE 18:16:14 25° ENE
Aureole 3 Rocket 3.9 18:08:28 10° SSW 18:12:51 66° WNW 18:19:07 10° N
USA 215 3.4 18:10:10 26° E 18:13:56 64° N 18:20:24 10° WNW
Cosmos 1745 Rocket 4.0 18:07:57 10° N 18:14:17 86° W 18:20:38 10° S
ATLAS 5 CENTAUR R/B 3.5 18:11:12 10° NW 18:15:02 24° N 18:17:34 17° NE
COSMOS 2455 4.3 18:12:55 10° NW 18:17:34 22° NNE 18:19:43 19° NE
Cosmos 1408 2.9 18:13:56 10° NNW 18:17:35 67° W 18:21:14 10° S
Cosmos 2082 4.0 18:12:09 10° NW 18:17:51 68° WSW 18:23:32 10° SSE
Meteor 2-3 Rocket 4.2 18:12:50 10° N 18:18:13 39° ENE 18:19:36 34° E
Lacrosse 5 2.2 18:13:28 10° WNW 18:18:28 55° NNE 18:20:12 37° ENE
Cosmos 44 Rocket 3.9 18:15:48 10° S 18:19:58 35° SE 18:19:58 35° SE
GEOS 3 Rocket 3.6 18:17:20 27° SE 18:20:21 80° NE 18:25:47 10° NW
ARGOS 3.2 18:17:21 18° SE 18:21:17 58° ENE 18:26:37 10° N
HJ-1C 3.8 18:23:12 48° NNE 18:23:12 48° NNE 18:25:53 10° N
ATLAS 2AS CENTAUR R/B 2.9 18:14:57 10° NW 18:22:38 67° NE 18:26:16 31° ESE
Cosmos 2278 Rocket 4.3 18:20:45 10° NNW 18:23:01 12° N 18:24:58 11° NNE
Cosmos 1689 Rocket 2.8 18:21:51 19° N 18:23:40 51° WNW 18:26:28 10° SSW
ERBS 2.9 18:20:35 10° WNW 18:23:42 45° N 18:23:42 45° N
FALCON 9 DEB 2.9 18:20:51 10° WSW 18:24:00 82° SW 18:24:00 82° SW
Cosmos 1656 3.8 18:19:22 10° SW 18:24:58 78° WNW 18:30:38 10° NNE
Cosmos 2058 Rocket 4.3 18:21:19 10° SW 18:25:38 44° WNW 18:30:00 10° N
SL-08 RB Rocket 4.0 18:26:12 42° ENE 18:26:12 42° ENE 18:30:16 10° N
Cosmos 1844 Rocket 4.0 18:26:55 10° NNW 18:31:21 23° NE 18:31:40 23° NE
Cosmos 1076 Rocket 3.8 18:27:42 10° NNW 18:31:57 68° W 18:36:10 10° S
FALCON 9 DEB 3.7 18:29:36 10° W 18:32:56 48° SSW 18:32:58 48° SSW
FALCON 9 DEB 3.4 18:30:24 10° W 18:33:08 61° W 18:33:08 61° W
SJ 16-02 3.1 18:31:40 10° N 18:33:44 20° NNE 18:33:44 20° NNE
Cosmos 2369 3.6 18:30:35 10° SSW 18:36:14 68° ESE 18:39:12 29° NE
Cosmos 1777 Rocket 3.9 18:32:06 10° NNW 18:37:19 68° ENE 18:38:35 49° ESE
Cosmos 2184 Rocket 4.4 18:34:19 10° N 18:40:16 41° ENE 18:40:25 40° ENE
Cosmos 2227 Rocket 4.1 18:36:23 10° NW 18:41:09 29° WSW 18:45:55 10° SSW
CSL-04 Rocket 3.8 18:37:08 10° SSE 18:42:41 79° WSW 18:48:14 10° NNW
COSMO-SKYMED 1 3.7 18:38:42 10° N 18:42:50 44° WNW 18:46:59 10° SW
Meteor 2-17 Rocket 4.5 18:37:32 10° N 18:43:29 54° ENE 18:44:33 48° ESE
Cosmos 1709 Rocket 4.0 18:37:22 10° N 18:43:48 89° W 18:50:12 10° S
Cosmos 2263 Rocket 2.1 18:38:12 10° NNW 18:43:54 67° NE 18:45:07 52° ESE
CZ-4B R/B 4.4 18:42:21 10° NNW 18:44:22 16° WNW 18:46:21 10° W
CZ-4C R/B 3.0 18:40:46 10° NW 18:47:24 58° NE 18:49:38 43° E
Cosmos 1825 3.2 18:46:05 10° NNW 18:49:43 45° W 18:52:23 17° SSW
Cosmos 2074 Rocket 4.1 18:52:11 10° N 18:58:06 53° ENE 18:58:06 53° ENE
Cosmos 1697 Rocket 2.7 18:52:47 10° SW 18:58:24 79° WNW 19:01:26 29° NNE
YAOGAN 1 4.1 18:54:50 10° SSW 18:58:49 35° W 19:02:51 10° NNW
Cosmos 883 Rocket 4.4 18:55:11 10° S 19:01:21 85° WNW 19:07:30 10° N
Cosmos 1812 Rocket 4.2 19:01:53 10° SSW 19:06:11 54° WNW 19:10:29 10° N
CZ-4 R/B 3.6 19:03:12 10° SSW 19:06:20 23° W 19:09:28 10° NW
Resurs 01 Rocket 4.1 19:11:39 12° N 19:11:39 12° N 19:12:01 10° N
Cosmos 2315 Rocket 3.9 19:05:56 10° S 19:12:10 86° WNW 19:18:24 10° N
SL-4 R/B 3.7 19:09:58 10° W 19:12:08 26° WSW 19:12:08 26° WSW
Cosmos 2151 3.7 19:10:13 10° NNW 19:14:07 50° W 19:14:07 50° W
MetOp-A 4.3 19:21:45 63° N 19:21:45 63° N 19:26:16 10° NNW
Cosmos 1980 Rocket 2.3 19:16:23 10° SSW 19:21:13 67° SSW 19:21:13 67° SSW
Ariane Rocket 3.6 19:33:53 54° NW 19:33:53 54° NW 19:37:54 10° NNW
SeaSat 1 3.4 19:40:26 43° WSW 19:40:26 43° WSW 19:45:03 10° NW
H-2A R/B 4.0 19:40:31 10° SSW 19:45:09 28° W 19:49:50 10° NNW
USA 215 3.3 19:57:31 73° W 19:57:31 73° W 20:03:29 10° WNW
ATLAS 5 CENTAUR R/B 3.8 19:56:27 10° NW 19:59:06 25° NNW 19:59:06 25° NNW
Lacrosse 5 3.4 19:56:35 10° WNW 19:59:23 33° WNW 19:59:23 33° WNW
COSMOS 2455 4.1 19:59:10 10° NW 20:02:51 34° N 20:02:51 34° N
Cosmos 2278 Rocket 4.2 20:04:40 10° NNW 20:06:48 19° N 20:06:48 19° N
ATLAS 2AS CENTAUR R/B 3.6 20:06:24 10° NW 20:13:20 42° WSW 20:13:44 42° SW
SJ 16-02 4.0 20:09:49 10° NNW 20:10:42 16° NNW 20:10:42 16° NNW
Cosmos 1844 Rocket 4.2 20:10:30 10° NNW 20:13:19 30° NNW 20:13:19 30° NNW
Cosmos 2263 Rocket 4.0 20:22:45 10° NW 20:26:51 26° W 20:26:51 26° W
CZ-4C R/B 3.5 20:29:17 10° NW 20:34:50 50° W 20:34:50 50° W
